Volver al catálogo

JITIANXING A-05 XING

ActivoCienciaSSO
NORAD 62733·PAYLOAD·🇨🇳 China
Este nombre de satélite aún no ha sido confirmado por fuentes oficiales.

Lanzado Jan 20, 2025 desde Jiuquan Satellite Launch Center

Loading…

Próximos Pases (próximas 24 horas)

TLE

ActualizadoSource: Space-Track

Época: Sep 14, 2026, 22:22 UTC

1 62733U 25013E   26257.93203153  .00002843  00000-0  17136-3 0  9998
2 62733  97.6649  67.4332 0009894  73.2432 286.9883 15.11561759 90778

Sigue JITIANXING A-05 XING en tiempo real con AllMySat

Download on the App Store